Location: Katowice
(50.2611°N, 19.0242°E)
Time: 08:02:34
(UTC+02:00)

Tiros 1 - Pass Details

Date: 03 September 2019
Orbit: 630 x 664 km, 48.4° (Epoch: 21 September)

Event Time Altitude Azimuth Distance (km) Brightness Sun altitude
Rises 20:44:31 0° 232° (SW) 2,917 10.8 -12.7°
Reaches altitude 10° 20:46:56 10° 225° (SW) 2,008 9.9 -13.1°
Maximum altitude 20:51:15 40° 156° (SSE) 931 7.6 -13.7°
Enters shadow 20:53:56 20° 97° (E) 1,451 8.4 -14.0°
